Weather History for Keene, NH

Change the Weather History Date:

Tuesday, January 8, 2013

  Actual Average Record
Temperature  
Mean Temperature 23 °F -  
Max Temperature 41 °F 29 °F 55 °F (1930)
Min Temperature 5 °F 12 °F -16 °F (1942)
Degree Days  
Heating Degree Days 42    
Moisture  
Dew Point 15 °F    
Average Humidity 77    
Maximum Humidity 93    
Minimum Humidity 45    
Precipitation  
Precipitation 0.00 in - - ()
Sea Level Pressure  
Sea Level Pressure 30.30 in    
Wind  
Wind Speed 2 mph (SSW)    
Max Wind Speed 12 mph    
Max Gust Speed -    
Visibility 9 miles    
Events      
Averages and records for this station are not official NWS values.
T = Trace of Precipitation, MM = Missing Value Source: NWS Daily Summary

Daily Weather History Graph

Daily Weather History Graph

Search for Another Location

Airport:

Trip Planner

Search our weather history database for the weather conditions in past years. The results will help you decide how hot, cold, wet, or windy it might be!

Date:

Astronomy

Jan. 08, 2013 Rise Set
Actual Time 7:19 AM EST 4:32 PM EST
Civil Twilight 6:47 AM EST 5:04 PM EST
Nautical Twilight 6:12 AM EST 5:39 PM EST
Astronomical Twilight 5:38 AM EST 6:13 PM EST
Moon 3:48 AM EST (1/8) 1:32 PM EST (1/8)
Length of Visible Light 10h 16m
Length of Day
9h 12m
Waning Crescent, 14% of the Moon is Illuminated
Jan 8
Waning Crescent
Jan 11
New
Jan 18
First Quarter
Jan 26
Full
Feb 3
Last Quarter

Hourly Weather History & Observations

Time (EST) Temp. Windchill Dew Point Humidity Pressure Visibility Wind Dir Wind Speed Gust Speed Precip Events Conditions
12:15 AM 10.4 °F - 6.8 °F 85% 30.32 in 8.0 mi Calm Calm - N/A   Clear
12:35 AM 10.4 °F - 6.8 °F 85% 30.31 in 8.0 mi Calm Calm - N/A   Clear
12:55 AM 8.6 °F - 6.8 °F 92% 30.31 in 9.0 mi Calm Calm - N/A   Clear
1:15 AM 8.6 °F - 6.8 °F 92% 30.31 in 10.0 mi Calm Calm - N/A   Clear
1:35 AM 8.6 °F - 6.8 °F 92% 30.31 in 10.0 mi Calm Calm - N/A   Clear
1:55 AM 10.4 °F - 6.8 °F 85% 30.31 in 10.0 mi Calm Calm - N/A   Clear
2:35 AM 8.6 °F - 6.8 °F 92% 30.30 in 9.0 mi Calm Calm - N/A   Clear
2:55 AM 8.6 °F - 5.0 °F 85% 30.30 in 8.0 mi Calm Calm - N/A   Clear
4:15 AM 6.8 °F - 1.4 °F 79% 30.27 in 10.0 mi Calm Calm - N/A   Clear
4:35 AM 6.8 °F - 3.2 °F 85% 30.27 in 10.0 mi Calm Calm - N/A   Clear
4:55 AM 6.8 °F - 3.2 °F 85% 30.26 in 10.0 mi Calm Calm - N/A   Clear
5:55 AM 6.8 °F - 3.2 °F 85% 30.28 in 10.0 mi Calm Calm - N/A   Clear
6:35 AM 6.8 °F -0.1 °F 1.4 °F 79% 30.28 in 8.0 mi South 3.5 mph - N/A   Clear
7:15 AM 6.8 °F - 1.4 °F 79% 30.29 in 7.0 mi Calm Calm - N/A   Clear
7:55 AM 5.0 °F - 1.4 °F 85% 30.31 in 8.0 mi Calm Calm - N/A   Clear
8:15 AM 6.8 °F -0.1 °F 3.2 °F 85% 30.31 in 5.0 mi South 3.5 mph - N/A   Clear
8:35 AM 8.6 °F - 5.0 °F 85% 30.31 in 7.0 mi Calm Calm - N/A   Clear
8:55 AM 12.2 °F - 8.6 °F 85% 30.32 in 8.0 mi Calm Calm - N/A   Clear
9:15 AM 14.0 °F - 10.4 °F 86% 30.32 in 3.0 mi Calm Calm - N/A   Clear
9:35 AM 17.6 °F - 15.8 °F 93% 30.32 in 8.0 mi Calm Calm - N/A   Clear
9:55 AM 21.2 °F 16.4 °F 19.4 °F 93% 30.32 in 7.0 mi South 3.5 mph - N/A   Clear
10:35 AM 30.2 °F 24.3 °F 24.8 °F 80% 30.30 in 10.0 mi SSW 5.8 mph - N/A   Clear
10:55 AM 33.8 °F 28.6 °F 21.2 °F 60% 30.29 in 10.0 mi SSW 5.8 mph - N/A   Clear
11:15 AM 35.6 °F 28.6 °F 21.2 °F 56% 30.28 in 10.0 mi SW 9.2 mph - N/A   Clear
11:35 AM 35.6 °F 28.0 °F 21.2 °F 56% 30.28 in 10.0 mi SW 10.4 mph - N/A   Clear
11:55 AM 37.4 °F 31.4 °F 23.0 °F 56% 30.27 in 10.0 mi SSW 8.1 mph - N/A   Clear
12:15 PM 37.4 °F 29.8 °F 23.0 °F 56% 30.26 in 10.0 mi SSW 11.5 mph - N/A   Clear
12:55 PM 39.2 °F 33.0 °F 23.0 °F 52% 30.26 in 10.0 mi SSW 9.2 mph - N/A   Clear
1:15 PM 39.2 °F 33.0 °F 23.0 °F 52% 30.25 in 10.0 mi SSW 9.2 mph - N/A   Clear
1:35 PM 39.2 °F 33.6 °F 23.0 °F 52% 30.25 in 10.0 mi SW 8.1 mph - N/A   Clear
2:55 PM 41.0 °F 34.3 °F 21.2 °F 45% 30.27 in 10.0 mi SSW 11.5 mph - N/A   Clear
3:35 PM 41.0 °F 35.2 °F 21.2 °F 45% 30.27 in 10.0 mi SSW 9.2 mph - N/A   Clear
3:55 PM 39.2 °F - 21.2 °F 49% 30.27 in 10.0 mi Calm Calm - N/A   Clear
4:35 PM 37.4 °F - 21.2 °F 52% 30.28 in 10.0 mi Calm Calm - N/A   Clear
4:55 PM 32.0 °F - 21.2 °F 64% 30.29 in 10.0 mi Calm Calm - N/A   Clear
5:15 PM 30.2 °F - 21.2 °F 69% 30.29 in 10.0 mi Calm Calm - N/A   Clear
5:35 PM 28.4 °F 24.6 °F 19.4 °F 69% 30.30 in 10.0 mi SSW 3.5 mph - N/A   Clear
5:55 PM 28.4 °F 23.3 °F 21.2 °F 74% 30.30 in 10.0 mi South 4.6 mph - N/A   Clear
6:15 PM 28.4 °F - 21.2 °F 74% 30.31 in 10.0 mi Calm Calm - N/A   Clear
6:35 PM 26.6 °F - 19.4 °F 74% 30.32 in 10.0 mi Calm Calm - N/A   Clear
6:55 PM 26.6 °F - 21.2 °F 80% 30.33 in 10.0 mi Calm Calm - N/A   Clear
7:15 PM 24.8 °F 20.5 °F 19.4 °F 80% 30.33 in 10.0 mi South 3.5 mph - N/A   Clear
7:35 PM 23.0 °F - 19.4 °F 86% 30.34 in 8.0 mi Calm Calm - N/A   Clear
7:55 PM 24.8 °F - 19.4 °F 80% 30.34 in 9.0 mi Calm Calm - N/A   Clear
8:55 PM 23.0 °F - 21.2 °F 93% 30.35 in 10.0 mi Calm Calm - N/A   Clear
9:15 PM 21.2 °F - 19.4 °F 93% 30.35 in 10.0 mi Calm Calm - N/A   Clear
9:35 PM 24.8 °F - 21.2 °F 86% 30.35 in 9.0 mi Calm Calm - N/A   Clear
9:55 PM 21.2 °F - 19.4 °F 93% 30.35 in 8.0 mi Calm Calm - N/A   Clear
10:15 PM 21.2 °F - 19.4 °F 93% 30.35 in 8.0 mi Calm Calm - N/A   Clear
10:55 PM 21.2 °F - 19.4 °F 93% 30.36 in 7.0 mi Calm Calm - N/A   Clear
11:15 PM 21.2 °F - 17.6 °F 86% 30.36 in 7.0 mi Calm Calm - N/A   Clear
11:35 PM 21.2 °F - 17.6 °F 86% 30.36 in 7.0 mi Calm Calm - N/A   Clear